Location: Lone Wolf Observatory
(41.0360°N, 89.2260°W)
Time: 21:55:17
(UTC-05:00)

Amateur Radio Satellites - All Passes

Search period start: 04 July 2015 21:25
Search period end: 05 July 2015 21:25
Location: Lone Wolf Observatory, 41.0360°N, 89.2260°W

Satellite Date Start Highest point End Downlink Frequencies (MHz)
Time Altitude Azimuth
SEEDS 04 Jul 21:35:11 21:39:00 34° 264° (W) 21:42:50 437.485
HO-68 04 Jul 21:36:12 21:42:53 41° 263° (W) 21:49:31 435.675
STRAND 1 04 Jul 21:40:16 21:43:14 15° 298° (WNW) 21:45:59 437.568
DX 1 04 Jul 21:42:20 21:45:23 19° 66° (ENE) 21:48:34 434.975-435.025
AAUSAT CUBESAT 2 04 Jul 21:45:29 21:49:21 38° 263° (W) 21:53:15 437.432
BRITE-PL 04 Jul 21:49:29 21:50:45 11° 274° (W) 21:51:37 437.365/2234.400
M-CUBED/EXP-1 PRIME 04 Jul 21:50:46 21:55:01 81° 107° (ESE) 21:59:34 437.505
CUBEBUG 2 04 Jul 21:55:10 21:59:28 73° 258° (WSW) 22:03:41 437.445
ZACube-1 04 Jul 21:56:12 22:00:23 69° 76° (ENE) 22:04:32 437.345
DELFI C3 04 Jul 21:58:46 22:02:46 90° 181° (S) 22:06:49 145.870
UKube-1 04 Jul 22:02:06 22:05:46 28° 69° (ENE) 22:09:30 .
50 SAT 04 Jul 22:04:00 22:06:24 17° 68° (ENE) 22:08:56 437.505
DOVE 4 04 Jul 22:04:12 22:07:09 15° 269° (W) 22:09:49 437.250
Oscar 11 04 Jul 22:04:18 22:08:31 55° 261° (W) 22:12:45 145.826/435.025
HUMSAT D 04 Jul 22:12:48 22:16:41 43° 73° (ENE) 22:20:35 437.325/437.525
COMPASS 1 04 Jul 22:13:15 22:16:03 17° 269° (W) 22:18:42 437.405
AISAT 04 Jul 22:20:22 22:24:07 27° 69° (ENE) 22:27:56 437.250
ANTELSAT 04 Jul 22:21:08 22:22:44 12° 89° (E) 22:24:36 437.575/2403.000
FUNcube-1 04 Jul 22:32:25 22:36:28 46° 261° (W) 22:40:29 145.935
TIGRISAT 04 Jul 22:32:31 22:35:05 16° 91° (E) 22:37:53 435.000
CUBEBUG 1 04 Jul 22:37:38 22:41:00 22° 68° (ENE) 22:44:28 437.445
UWE-3 04 Jul 22:46:33 22:50:06 25° 266° (W) 22:53:31 435.000/436.395/437.385
Cosmos 2499 04 Jul 22:47:15 22:55:05 70° 266° (W) 23:03:28 435.465 / 435.565
AUBIESAT-1 04 Jul 22:51:23 22:55:00 27° 295° (WNW) 22:58:45 437.475
ESTCUBE 1 04 Jul 22:53:08 22:57:18 38° 71° (ENE) 23:01:32 437.505/2401.250
GONETS M04 04 Jul 22:53:19 22:58:05 15° 282° (WNW) 23:02:14
VELOX 1 04 Jul 23:08:43 23:13:11 86° 80° (E) 23:17:41 145.980
UNISAT 6 04 Jul 23:11:10 23:15:22 43° 99° (E) 23:19:38 437.425
QB50P2 04 Jul 23:14:38 23:17:35 19° 92° (E) 23:20:39 145.880/145.840
POPSAT HIP 1 04 Jul 23:15:19 23:18:13 18° 92° (E) 23:21:13 437.405
DX 1 04 Jul 23:17:15 23:21:23 40° 262° (W) 23:25:31 434.975-435.025
M-CUBED/EXP-1 PRIME 04 Jul 23:27:59 23:29:24 11° 300° (WNW) 23:30:38 437.505
50 SAT 04 Jul 23:37:17 23:40:48 34° 263° (W) 23:44:19 437.505
SPROUT 04 Jul 23:37:57 23:41:34 27° 70° (ENE) 23:45:15 437.525
UKube-1 04 Jul 23:38:11 23:41:52 26° 265° (W) 23:45:30 .
HUMSAT D 04 Jul 23:50:20 23:52:42 14° 270° (W) 23:54:54 437.325/437.525
QB50P1 04 Jul 23:53:25 23:57:31 50° 99° (E) 00:01:36 145.935-145.965
ANTELSAT 04 Jul 23:55:37 23:59:58 61° 286° (WNW) 00:04:23 437.575/2403.000
AISAT 04 Jul 23:56:45 00:00:39 28° 265° (W) 00:04:29 437.250
NANOSAT C BR1 05 Jul 00:07:24 00:11:37 73° 102° (ESE) 00:15:48 145.865
PCSat 05 Jul 00:07:34 00:12:09 28° 48° (NE) 00:16:48 145.827
TIGRISAT 05 Jul 00:07:55 00:12:08 46° 287° (WNW) 00:16:23 435.000
CUBEBUG 1 05 Jul 00:13:06 00:17:11 35° 263° (W) 00:21:14 437.445
DUCHIFAT 1 05 Jul 00:14:13 00:18:26 85° 106° (ESE) 00:22:37 145.980
TISAT 1 05 Jul 00:17:30 00:21:35 49° 73° (ENE) 00:25:42 437.305
POLYITAN 1 05 Jul 00:19:49 00:24:02 78° 284° (WNW) 00:28:14 437.675
BUGSAT 1 05 Jul 00:29:30 00:33:35 84° 103° (ESE) 00:37:36 437.445
ESTCUBE 1 05 Jul 00:30:52 00:34:19 21° 268° (W) 00:37:41 437.505/2401.250
SO-50 05 Jul 00:32:40 00:36:18 20° 41° (NE) 00:40:02 436.795
Cosmos 2499 05 Jul 00:44:27 00:47:10 11° 281° (WNW) 00:49:15 435.465 / 435.565
UNISAT 6 05 Jul 00:48:50 00:51:52 18° 293° (WNW) 00:54:50 437.425
QB50P2 05 Jul 00:49:45 00:53:38 35° 289° (WNW) 00:57:27 145.880/145.840
POPSAT HIP 1 05 Jul 00:50:22 00:54:14 36° 289° (WNW) 00:58:04 437.405
Cosmos 2491 05 Jul 00:53:39 00:58:41 17° 58° (ENE) 01:04:11 435.465 / 435.565
BEESAT 05 Jul 00:54:54 00:58:34 23° 67° (ENE) 01:02:22 436.000
SWISSCUBE 05 Jul 01:09:51 01:14:08 35° 70° (ENE) 01:18:30 437.505
SPROUT 05 Jul 01:13:59 01:17:38 26° 265° (W) 01:21:13 437.525
ITUPSAT 1 05 Jul 01:15:20 01:19:40 35° 70° (ENE) 01:24:04 437.325
QB50P1 05 Jul 01:30:37 01:33:00 14° 295° (WNW) 01:35:13 145.935-145.965
RS-15 05 Jul 01:44:49 01:54:41 44° 110° (ESE) 02:04:59 29.354- 29.394
NANOSAT C BR1 05 Jul 01:46:03 01:46:55 10° 297° (WNW) 01:47:33 145.865
PCSat 05 Jul 01:50:37 01:55:48 46° 247° (WSW) 02:00:56 145.827
TISAT 1 05 Jul 01:55:22 01:57:42 14° 270° (W) 01:59:49 437.305
KKS-1 05 Jul 02:02:10 02:05:11 19° 66° (ENE) 02:08:21 437.445
SO-50 05 Jul 02:12:26 02:17:22 66° 240° (WSW) 02:22:11 436.795
AIST 1 05 Jul 02:13:54 02:17:21 23° 72° (ENE) 02:20:50
BEESAT 05 Jul 02:31:45 02:36:13 38° 263° (W) 02:40:41 436.000
Oscar 19 05 Jul 02:32:47 02:37:56 84° 103° (ESE) 02:43:05 437.125/150
Gurwin Techsat 1B 05 Jul 02:42:38 02:47:15 30° 95° (E) 02:51:56 435.225
ITAMSAT 1 05 Jul 02:45:50 02:50:22 30° 95° (E) 02:54:58 435.822/435.867
SWISSCUBE 05 Jul 02:48:07 02:52:04 25° 266° (W) 02:55:58 437.505
Cosmos 2491 05 Jul 02:48:28 02:57:16 82° 81° (E) 03:05:59 435.465 / 435.565
STARS 05 Jul 02:51:49 02:55:49 36° 71° (ENE) 02:59:53 437.465
ITUPSAT 1 05 Jul 02:53:42 02:57:39 24° 266° (W) 03:01:31 437.325
YUBILEINY 05 Jul 03:21:35 03:30:01 60° 92° (E) 03:38:32 435.215
JAS-2 05 Jul 03:29:35 03:35:19 30° 94° (E) 03:41:41 435.910
KKS-1 05 Jul 03:37:18 03:41:33 42° 262° (W) 03:45:48 437.445
AO-7 05 Jul 03:49:47 03:56:09 25° 92° (E) 04:02:47 29.400- 29.500
AIST 1 05 Jul 03:51:15 03:55:02 29° 269° (W) 03:58:43
RS-15 05 Jul 03:56:08 04:06:51 56° 313° (NW) 04:17:56 29.354- 29.394
MOZHAYETS 4 05 Jul 03:58:49 04:02:49 31° 70° (ENE) 04:06:54
Oscar 19 05 Jul 04:14:19 04:16:40 13° 299° (WNW) 04:18:47 437.125/150
Gurwin Techsat 1B 05 Jul 04:22:28 04:27:15 34° 292° (WNW) 04:31:58 435.225
ITAMSAT 1 05 Jul 04:25:14 04:29:54 33° 292° (WNW) 04:34:29 435.822/435.867
STARS 05 Jul 04:29:07 04:32:25 20° 267° (W) 04:35:36 437.465
HORYU 2 05 Jul 04:29:29 04:33:47 45° 99° (E) 04:38:06 437.375
Cosmos 2491 05 Jul 04:47:10 04:53:11 20° 280° (W) 04:58:43 435.465 / 435.565
Cosmos 2504 05 Jul 04:52:29 04:57:10 21° 84° (E) 05:02:08 435.465 / 435.565
JAS-2 05 Jul 05:14:10 05:20:34 53° 289° (WNW) 05:27:40 435.910
YUBILEINY 05 Jul 05:19:58 05:27:28 30° 293° (WNW) 05:34:46 435.215
MOZHAYETS 4 05 Jul 05:36:15 05:40:04 25° 266° (W) 05:43:51
STRAND 1 05 Jul 05:39:22 05:41:39 13° 61° (ENE) 05:44:10 437.568
AO-7 05 Jul 05:41:23 05:49:45 72° 291° (WNW) 05:58:01 29.400- 29.500
Cubesat XI-IV 05 Jul 06:01:16 06:03:53 14° 88° (E) 06:06:47 437.490
PRISM 05 Jul 06:02:03 06:04:30 16° 65° (ENE) 06:07:08 437.425
CUBESAT XI-V 05 Jul 06:03:37 06:08:12 54° 73° (ENE) 06:12:50 437.345
HORYU 2 05 Jul 06:07:04 06:10:07 18° 294° (WNW) 06:13:02 437.375
RS-15 05 Jul 06:14:02 06:22:36 24° 344° (NNW) 06:31:16 29.354- 29.394
BEESAT 3 05 Jul 06:21:05 06:23:25 15° 111° (ESE) 06:25:56 437.485
O/OREOS (USA 219) 05 Jul 06:21:25 06:22:31 11° 99° (E) 06:23:51 437.305
BEESAT 2 05 Jul 06:34:01 06:36:36 17° 111° (ESE) 06:39:20 435.950
Cosmos 2504 05 Jul 06:41:54 06:48:47 63° 281° (W) 06:55:40 435.465 / 435.565
CUTE-I 05 Jul 07:04:52 07:10:08 56° 100° (E) 07:15:23 437.470
CUSAT 1 05 Jul 07:09:10 07:14:04 24° 95° (E) 07:18:14 437.405
STRAND 1 05 Jul 07:15:05 07:20:13 82° 255° (WSW) 07:25:26 437.568
ISS 05 Jul 07:29:31 07:32:13 25° 135° (SE) 07:34:58 145.825
PRISM 05 Jul 07:35:36 07:39:37 45° 261° (W) 07:43:40 437.425
AO-7 05 Jul 07:36:12 07:41:17 17° 310° (NW) 07:45:58 29.400- 29.500
Cubesat XI-IV 05 Jul 07:39:16 07:44:38 72° 286° (WNW) 07:49:58 437.490
CUBESAT XI-V 05 Jul 07:43:08 07:46:02 15° 271° (W) 07:48:44 437.345
VERMONT LUNAR 05 Jul 07:50:50 07:53:44 37° 160° (SSE) 07:56:39 437.305
AIST 2 05 Jul 07:56:12 07:59:57 31° 115° (ESE) 08:03:46 435.215
O/OREOS (USA 219) 05 Jul 07:56:59 08:01:24 67° 294° (WNW) 08:05:52 437.305
BEESAT 3 05 Jul 07:57:04 08:01:02 48° 307° (NW) 08:05:02 437.485
GONETS M04 05 Jul 08:00:19 08:06:38 24° 82° (E) 08:13:17
AUBIESAT-1 05 Jul 08:05:08 08:08:03 29° 65° (ENE) 08:11:06 437.475
BEESAT 2 05 Jul 08:10:23 08:14:21 45° 307° (NW) 08:18:21 435.950
BRITE-PL 05 Jul 08:12:12 08:15:45 25° 94° (E) 08:19:16 437.365/2234.400
DANDE 05 Jul 08:16:07 08:23:22 72° 98° (E) 08:28:55 436.750
PHONESAT 2.4 05 Jul 08:20:07 08:22:23 17° 150° (SSE) 08:24:42 2401.200-2431.200
DOVE 4 05 Jul 08:25:28 08:27:02 12° 89° (E) 08:28:49 437.250
RS-15 05 Jul 08:31:37 08:40:22 24° 18° (NNE) 08:49:37 29.354- 29.394
CUTE 1.7 + AOD 2 05 Jul 08:33:32 08:35:46 14° 90° (E) 08:38:12 437.475
CANX-2 05 Jul 08:36:33 08:39:21 17° 91° (E) 08:42:18 2200.000
M-CUBED/EXP-1 PRIME 05 Jul 08:39:48 08:43:05 76° 253° (WSW) 08:46:32 437.505
CUTE-I 05 Jul 08:45:56 08:49:50 20° 296° (WNW) 08:53:34 437.470
CUSAT 1 05 Jul 08:50:33 08:56:38 43° 282° (WNW) 09:01:17 437.405
HO-68 05 Jul 09:03:27 09:10:04 40° 97° (E) 09:16:45 435.675
CINEMA 3 05 Jul 09:04:32 09:06:57 15° 91° (E) 09:09:35 145.822/145.860
ISS 05 Jul 09:05:27 09:08:31 38° 331° (NNW) 09:11:35 145.825
SEEDS 05 Jul 09:19:12 09:23:09 37° 97° (E) 09:27:08 437.485
GOMX 1 05 Jul 09:21:07 09:25:20 89° 287° (WNW) 09:29:28 467.674
ANTELSAT 05 Jul 09:21:24 09:22:28 11° 63° (ENE) 09:23:45 437.575/2403.000
Cubesat XI-IV 05 Jul 09:23:26 09:23:54 10° 302° (WNW) 09:24:04 437.490
VERMONT LUNAR 05 Jul 09:27:23 09:30:30 82° 177° (S) 09:33:39 437.305
AAUSAT CUBESAT 2 05 Jul 09:28:20 09:32:06 31° 96° (E) 09:35:54 437.432
TIGRISAT 05 Jul 09:32:12 09:34:21 14° 65° (ENE) 09:36:40 435.000
AIST 2 05 Jul 09:34:50 09:38:33 27° 313° (NW) 09:42:13 435.215
Cosmos 2499 05 Jul 09:35:22 09:38:54 15° 81° (E) 09:42:52 435.465 / 435.565
DELFI C3 05 Jul 09:39:48 09:41:25 12° 89° (E) 09:43:15 145.870
AUBIESAT-1 05 Jul 09:41:02 09:42:59 14° 263° (W) 09:44:52 437.475
ZACube-1 05 Jul 09:46:23 09:48:16 13° 90° (E) 09:50:22 437.345
CUBEBUG 2 05 Jul 09:46:42 09:49:56 22° 93° (E) 09:53:20 437.445
BRITE-PL 05 Jul 09:50:43 09:54:18 25° 291° (WNW) 09:57:40 437.365/2234.400
Oscar 11 05 Jul 09:52:01 09:55:40 26° 95° (E) 09:59:22 145.826/435.025
GONETS M04 05 Jul 09:53:58 10:02:45 72° 280° (W) 10:11:31
COMPASS 1 05 Jul 09:54:52 09:59:07 77° 102° (ESE) 10:03:21 437.405
PHONESAT 2.4 05 Jul 09:56:38 09:59:59 55° 166° (SSE) 10:03:23 2401.200-2431.200
DOVE 4 05 Jul 10:01:12 10:05:14 51° 286° (WNW) 10:09:15 437.250
DANDE 05 Jul 10:02:12 10:06:44 18° 290° (WNW) 10:10:24 436.750
CUTE 1.7 + AOD 2 05 Jul 10:07:51 10:12:00 48° 287° (WNW) 10:16:08 437.475
QB50P2 05 Jul 10:08:14 10:10:39 15° 66° (ENE) 10:13:13 145.880/145.840
POPSAT HIP 1 05 Jul 10:08:48 10:11:09 15° 66° (ENE) 10:13:40 437.405
UNISAT 6 05 Jul 10:10:19 10:14:14 36° 71° (ENE) 10:18:11 437.425
CANX-2 05 Jul 10:11:28 10:15:30 40° 288° (WNW) 10:19:30 2200.000
FUNcube-1 05 Jul 10:20:40 10:24:24 30° 96° (E) 10:28:14 145.935
UWE-3 05 Jul 10:35:16 10:39:27 61° 100° (E) 10:43:43 435.000/436.395/437.385
CINEMA 3 05 Jul 10:40:29 10:44:26 42° 287° (WNW) 10:48:26 145.822/145.860
ISS 05 Jul 10:43:45 10:45:36 14° 351° (N) 10:47:27 145.825
RS-15 05 Jul 10:44:40 10:56:07 58° 48° (NE) 11:08:05 29.354- 29.394
QB50P1 05 Jul 10:45:58 10:49:52 37° 72° (ENE) 10:53:48 145.935-145.965
HO-68 05 Jul 10:51:14 10:57:48 40° 295° (WNW) 11:04:18 435.675
ANTELSAT 05 Jul 10:54:28 10:58:45 70° 259° (WSW) 11:03:01 437.575/2403.000
SEEDS 05 Jul 10:55:38 10:58:43 19° 292° (WNW) 11:01:42 437.485
NANOSAT C BR1 05 Jul 10:59:35 11:03:42 52° 73° (ENE) 11:07:50 145.865
VELOX 1 05 Jul 11:00:35 11:03:17 16° 91° (E) 11:06:08 145.980
AAUSAT CUBESAT 2 05 Jul 11:04:16 11:07:33 22° 291° (WNW) 11:10:44 437.432
VERMONT LUNAR 05 Jul 11:04:16 11:07:21 58° 194° (SSW) 11:10:28 437.305
DX 1 05 Jul 11:05:38 11:09:34 33° 97° (E) 11:13:30 434.975-435.025
DUCHIFAT 1 05 Jul 11:06:08 11:10:18 61° 75° (ENE) 11:14:28 145.980
TIGRISAT 05 Jul 11:06:32 11:10:44 53° 260° (W) 11:14:54 435.000
POLYITAN 1 05 Jul 11:12:21 11:16:35 77° 76° (ENE) 11:20:49 437.675
DELFI C3 05 Jul 11:12:53 11:16:51 51° 286° (WNW) 11:20:49 145.870
50 SAT 05 Jul 11:13:02 11:16:14 24° 95° (E) 11:19:31 437.505
BUGSAT 1 05 Jul 11:19:00 11:23:08 56° 74° (ENE) 11:27:16 437.445
ZACube-1 05 Jul 11:20:52 11:24:59 52° 286° (WNW) 11:29:09 437.345
CUBEBUG 2 05 Jul 11:22:57 11:26:42 31° 289° (WNW) 11:30:28 437.445
Cosmos 2499 05 Jul 11:24:05 11:31:09 83° 278° (W) 11:38:21 435.465 / 435.565
UKube-1 05 Jul 11:24:56 11:29:09 50° 100° (E) 11:33:21 .
Oscar 11 05 Jul 11:28:05 11:31:48 27° 291° (WNW) 11:35:27 145.826/435.025
HUMSAT D 05 Jul 11:32:00 11:36:12 88° 102° (ESE) 11:40:24 437.325/437.525
COMPASS 1 05 Jul 11:33:49 11:34:14 10° 297° (WNW) 11:34:25 437.405
PHONESAT 2.4 05 Jul 11:34:30 11:37:57 84° 181° (S) 11:41:25 2401.200-2431.200
QB50P2 05 Jul 11:42:05 11:46:12 48° 261° (W) 11:50:19 145.880/145.840
POPSAT HIP 1 05 Jul 11:42:33 11:46:40 49° 261° (W) 11:50:48 437.405
AISAT 05 Jul 11:46:47 11:51:07 54° 100° (E) 11:55:26 437.250
UNISAT 6 05 Jul 11:48:07 11:51:11 19° 268° (W) 11:54:08 437.425
GONETS M04 05 Jul 11:56:56 12:01:35 14° 304° (NW) 12:05:40
FUNcube-1 05 Jul 11:57:16 12:00:37 23° 291° (WNW) 12:03:54 145.935
CUBEBUG 1 05 Jul 12:01:46 12:05:54 41° 98° (E) 12:10:01 437.445
Oscar 19 05 Jul 12:12:59 12:15:48 15° 62° (ENE) 12:18:50 437.125/150
UWE-3 05 Jul 12:13:43 12:15:35 12° 295° (WNW) 12:17:16 435.000/436.395/437.385
ISS 05 Jul 12:21:03 12:23:00 15° 11° (N) 12:24:57 145.825
ESTCUBE 1 05 Jul 12:22:12 12:26:47 85° 103° (ESE) 12:31:18 437.505/2401.250
QB50P1 05 Jul 12:22:53 12:25:54 18° 268° (W) 12:28:47 145.935-145.965
VELOX 1 05 Jul 12:35:54 12:40:08 45° 288° (WNW) 12:44:18 145.980
NANOSAT C BR1 05 Jul 12:37:48 12:39:54 13° 270° (W) 12:41:46 145.865
VERMONT LUNAR 05 Jul 12:41:43 12:43:56 18° 208° (SSW) 12:46:09 437.305
DX 1 05 Jul 12:42:14 12:45:39 22° 293° (WNW) 12:48:56 434.975-435.025
DUCHIFAT 1 05 Jul 12:45:13 12:46:35 11° 272° (W) 12:47:40 145.980
50 SAT 05 Jul 12:47:36 12:50:48 24° 290° (WNW) 12:53:56 437.505
BUGSAT 1 05 Jul 12:57:14 12:59:01 12° 271° (W) 13:00:35 437.445
RS-15 05 Jul 12:57:29 13:08:29 46° 249° (WSW) 13:19:38 29.354- 29.394
SPROUT 05 Jul 12:59:53 13:04:05 53° 100° (E) 13:08:16 437.525
UKube-1 05 Jul 13:02:18 13:04:55 15° 295° (WNW) 13:07:22 .
PHONESAT 2.4 05 Jul 13:12:32 13:15:52 45° 198° (SSW) 13:19:11 2401.200-2431.200
Cosmos 2499 05 Jul 13:22:19 13:25:46 13° 301° (WNW) 13:28:47 435.465 / 435.565
AISAT 05 Jul 13:24:45 13:27:18 15° 295° (WNW) 13:29:40 437.250
YUBILEINY 05 Jul 13:32:11 13:39:26 29° 67° (ENE) 13:46:56 435.215
TISAT 1 05 Jul 13:37:29 13:41:42 88° 287° (WNW) 13:45:52 437.305
CUBEBUG 1 05 Jul 13:38:57 13:41:58 18° 294° (WNW) 13:44:51 437.445
Oscar 19 05 Jul 13:49:33 13:54:39 69° 258° (WSW) 13:59:48 437.125/150
Cosmos 2491 05 Jul 13:56:26 14:01:45 19° 80° (E) 14:07:33 435.465 / 435.565
ISS 05 Jul 13:56:54 14:00:01 44° 30° (NNE) 14:03:09 145.825
ESTCUBE 1 05 Jul 14:02:06 14:03:02 10° 298° (WNW) 14:03:42 437.505/2401.250
Gurwin Techsat 1B 05 Jul 14:03:26 14:08:30 47° 71° (ENE) 14:13:37 435.225
ITAMSAT 1 05 Jul 14:03:31 14:08:28 46° 71° (ENE) 14:13:28 435.822/435.867
BEESAT 05 Jul 14:31:40 14:36:23 53° 100° (E) 14:41:04 436.000
SPROUT 05 Jul 14:37:25 14:39:46 14° 295° (WNW) 14:41:57 437.525
BEESAT 3 05 Jul 14:39:21 14:41:04 12° 39° (NE) 14:42:54 437.485
AIST 1 05 Jul 14:44:35 14:46:47 14° 86° (E) 14:49:11
SWISSCUBE 05 Jul 14:47:22 14:52:13 85° 104° (ESE) 14:57:01 437.505
AO-7 05 Jul 14:48:33 14:55:48 36° 60° (ENE) 15:03:14 29.400- 29.500
PCSat 05 Jul 14:49:56 14:54:02 23° 108° (ESE) 14:58:17 145.827
PHONESAT 2.4 05 Jul 14:51:49 14:53:24 12° 212° (SSW) 14:54:54 2401.200-2431.200
BEESAT 2 05 Jul 14:52:51 14:54:53 13° 39° (NE) 14:57:01 435.950
ITUPSAT 1 05 Jul 14:53:13 14:58:04 87° 103° (ESE) 15:02:53 437.325
JAS-2 05 Jul 15:27:06 15:32:13 69° 74° (ENE) 15:37:39 435.910
HORYU 2 05 Jul 15:27:37 15:31:45 41° 72° (ENE) 15:35:56 437.375
YUBILEINY 05 Jul 15:28:20 15:36:57 62° 268° (W) 15:45:32 435.215
KKS-1 05 Jul 15:28:25 15:32:29 35° 97° (E) 15:36:33 437.445
ISS 05 Jul 15:33:43 15:36:15 21° 226° (SW) 15:38:43 145.825
ITAMSAT 1 05 Jul 15:44:11 15:48:14 22° 268° (W) 15:52:10 435.822/435.867
Gurwin Techsat 1B 05 Jul 15:44:41 15:48:47 22° 268° (W) 15:52:44 435.225
Cosmos 2491 05 Jul 15:48:45 15:57:36 87° 278° (W) 16:06:29 435.465 / 435.565
BEESAT 05 Jul 16:10:38 16:13:50 17° 296° (WNW) 16:16:52 436.000
BEESAT 3 05 Jul 16:15:34 16:19:39 86° 240° (WSW) 16:23:39 437.485
STARS 05 Jul 16:17:24 16:21:48 75° 102° (ESE) 16:26:09 437.465
AIST 2 05 Jul 16:18:00 16:21:21 23° 45° (NE) 16:24:43 435.215
AIST 1 05 Jul 16:19:46 16:24:02 48° 282° (WNW) 16:28:20
SO-50 05 Jul 16:26:31 16:30:56 42° 116° (ESE) 16:35:33 436.795
Cosmos 2504 05 Jul 16:26:58 16:33:54 40° 74° (ENE) 16:41:23 435.465 / 435.565
SWISSCUBE 05 Jul 16:27:44 16:29:27 12° 299° (WNW) 16:30:54 437.505
O/OREOS (USA 219) 05 Jul 16:28:17 16:31:54 23° 57° (ENE) 16:35:36 437.305
BEESAT 2 05 Jul 16:29:25 16:33:31 78° 239° (WSW) 16:37:32 435.950
PCSat 05 Jul 16:31:53 16:37:09 50° 304° (NW) 16:42:26 145.827
ITUPSAT 1 05 Jul 16:33:44 16:35:19 11° 299° (WNW) 16:36:39 437.325
AO-7 05 Jul 16:40:11 16:48:20 55° 259° (WSW) 16:56:30 29.400- 29.500
CUTE-I 05 Jul 16:50:28 16:52:32 13° 60° (ENE) 16:54:54 437.470
KKS-1 05 Jul 17:05:30 17:08:56 22° 293° (WNW) 17:12:15 437.445
HORYU 2 05 Jul 17:05:33 17:08:37 18° 268° (W) 17:11:33 437.375
JAS-2 05 Jul 17:15:47 17:18:13 13° 274° (W) 17:20:21 435.910
Cubesat XI-IV 05 Jul 17:22:34 17:26:47 25° 65° (ENE) 17:31:07 437.490
MOZHAYETS 4 05 Jul 17:30:21 17:35:02 77° 103° (ESE) 17:39:41
Cosmos 2491 05 Jul 17:50:06 17:56:03 18° 301° (WNW) 18:01:32 435.465 / 435.565
AIST 2 05 Jul 17:56:09 18:00:04 38° 244° (WSW) 18:03:54 435.215
STARS 05 Jul 17:56:20 17:57:42 11° 297° (WNW) 17:58:50 437.465
CUBESAT XI-V 05 Jul 18:02:10 18:04:24 14° 88° (E) 18:06:52 437.345
O/OREOS (USA 219) 05 Jul 18:07:17 18:11:26 35° 254° (WSW) 18:15:33 437.305
SO-50 05 Jul 18:07:34 18:11:40 27° 315° (NW) 18:15:48 436.795
GONETS M04 05 Jul 18:12:19 18:13:36 11° 52° (NE) 18:15:35
Cosmos 2504 05 Jul 18:19:09 18:26:07 40° 271° (W) 18:33:26 435.465 / 435.565
PCSat 05 Jul 18:21:15 18:22:01 10° 327° (NNW) 18:22:33 145.827
CUTE-I 05 Jul 18:26:32 18:31:55 88° 84° (E) 18:37:21 437.470
GOMX 1 05 Jul 18:54:15 18:55:47 12° 64° (ENE) 18:57:33 467.674
DANDE 05 Jul 18:59:21 19:01:47 27° 74° (ENE) 19:04:04 436.750
Cubesat XI-IV 05 Jul 19:01:31 19:06:38 44° 261° (W) 19:11:47 437.490
MOZHAYETS 4 05 Jul 19:09:52 19:11:41 12° 297° (WNW) 19:13:17
PRISM 05 Jul 19:18:20 19:21:42 24° 94° (E) 19:25:08 437.425
BRITE-PL 05 Jul 19:21:49 19:26:43 37° 71° (ENE) 19:31:24 437.365/2234.400
STRAND 1 05 Jul 19:26:04 19:30:43 34° 96° (E) 19:35:23 437.568
CUTE 1.7 + AOD 2 05 Jul 19:28:04 19:29:00 11° 64° (ENE) 19:30:09 437.475
CUSAT 1 05 Jul 19:28:38 19:31:07 39° 263° (W) 19:33:36 437.405
CANX-2 05 Jul 19:30:38 19:32:30 13° 65° (ENE) 19:34:34 2200.000
DOVE 4 05 Jul 19:30:39 19:33:26 16° 67° (ENE) 19:36:17 437.250
HO-68 05 Jul 19:32:26 19:38:24 31° 62° (ENE) 19:44:31 435.675
CUBESAT XI-V 05 Jul 19:37:41 19:42:20 59° 286° (WNW) 19:46:53 437.345
GONETS M04 05 Jul 20:04:26 20:12:58 58° 77° (ENE) 20:21:31
CINEMA 3 05 Jul 20:06:43 20:09:19 16° 67° (ENE) 20:12:01 145.822/145.860
CUTE-I 05 Jul 20:11:16 20:12:51 11° 274° (W) 20:14:03 437.470
SEEDS 05 Jul 20:11:27 20:14:53 26° 70° (ENE) 20:18:25 437.485
AAUSAT CUBESAT 2 05 Jul 20:19:28 20:22:36 22° 68° (ENE) 20:25:50 437.432
GOMX 1 05 Jul 20:28:16 20:33:26 86° 257° (WSW) 20:38:16 467.674
ZACube-1 05 Jul 20:43:59 20:44:50 11° 64° (ENE) 20:45:56 437.345
CUBEBUG 2 05 Jul 20:45:32 20:48:28 19° 68° (ENE) 20:51:29 437.445
COMPASS 1 05 Jul 20:45:48 20:49:47 49° 74° (ENE) 20:53:51 437.405
Oscar 11 05 Jul 20:47:11 20:50:21 21° 68° (ENE) 20:53:38 145.826/435.025
PRISM 05 Jul 20:53:31 20:57:09 28° 291° (WNW) 21:00:42 437.425
CUTE 1.7 + AOD 2 05 Jul 21:00:12 21:04:23 71° 259° (W) 21:08:37 437.475
BRITE-PL 05 Jul 21:00:34 21:05:16 28° 265° (W) 21:09:39 437.365/2234.400
CANX-2 05 Jul 21:03:51 21:07:59 57° 260° (W) 21:12:10 2200.000
STRAND 1 05 Jul 21:05:25 21:09:51 29° 293° (WNW) 21:14:11 437.568
DOVE 4 05 Jul 21:06:06 21:10:53 55° 260° (W) 21:15:24 437.250
FUNcube-1 05 Jul 21:16:49 21:20:08 24° 69° (ENE) 21:23:31 145.935
